Tracking 19794 objects as of 22-Jul-2019
HD Live streaming from Space Station
objects crossing your sky now

SHIJIAN-15 (SJ-15)

Track SHIJIAN-15 (SJ-15) now!
10-day predictions
SHIJIAN-15 (SJ-15) is classified as:


NORAD ID: 39210
Int'l Code: 2013-037C
Perigee: 671.6 km
Apogee: 679.8 km
Inclination: 98.0 °
Period: 98.1 minutes
Semi major axis: 7046 km
RCS: Unknown
Launch date: July 19, 2013
Source: People's Republic of China (PRC)
Launch site: Taiyaun Space Center, China (TSC)

SHIJIAN 15 is a technology satellite, precise mission unknown at present.
aabbcc
Your satellite tracking list
Your tracking list is empty




NASA's NSSDC Master Catalog

Two Line Element Set (TLE):
1 39210U 13037C   19203.60225341 -.00000021  00000-0  46922-5 0  9999
2 39210  98.0021 206.5950 0005774 226.5766 133.4951 14.67660176324178
Source of the keplerian elements: AFSPC